This demonstration page uses our WeatherBlox Daily Observations layout. Learn more.

Left ArrowRight Arrow

39.01783, -85.05884

Hourly Observations for March 13, 2018

Temp ( °F °C ) Dew Point ( °F °C ) Humidity (%) Winds ( mph kmh ) Pressure ( in mb ) Visibility ( mi km ) Precip ( " mm )
12:52 am 00:52 Clear 29 -1.7 26 -3.3 89 89 W 10 17 30.10 1019 8 13 N/A
1:52 am 01:52 Clear 29 -1.7 26 -3.3 89 89 W 7 11 30.10 1019 9 14 N/A
2:52 am 02:52 Clear 29 -1.7 25 -3.9 85 85 NW 7 11 30.09 1019 9 14 N/A
3:52 am 03:52 Clear 26 -3.3 22 -5.6 84 84 WNW 7 11 30.08 1019 10 16 N/A
4:52 am 04:52 Clear 26 -3.3 22 -5.6 84 84 W 7 11 30.08 1019 9 14 N/A
5:52 am 05:52 Clear 28 -2.2 24 -4.4 85 85 WNW 10 17 30.08 1019 9 14 N/A
6:52 am 06:52 Mostly Clear 24 -4.4 22 -5.6 91 91 W 6 9 30.09 1019 7 11 N/A
7:52 am 07:52 Cloudy 25 -3.9 23 -5 92 92 N N/A 30.10 1019 7 11 N/A
8:52 am 08:52 Cloudy 29 -1.7 25 -3.9 85 85 W 7 11 30.10 1019 8 13 N/A
9:52 am 09:52 Cloudy 32 undefined 27 -2.8 82 82 WNW 8 13 30.10 1019 8 13 N/A
10:52 am 10:52 Mostly Cloudy 37 2.8 28 -2.2 70 70 WNW 8 13 30.09 1019 10 16 N/A
11:52 am 11:52 Cloudy 36 2.2 24 -4.4 62 62 NW 8 13 30.08 1019 10 16 N/A
12:06 pm 12:06 Cloudy with Light Snow 34 1.1 27 -2.8 76 76 NW 15 24 30.09 1019 2 3 N/A
12:52 pm 12:52 Cloudy with Light Snow 34 1.1 28 -2.2 79 79 W 16 26 30.08 1019 6 10 0.01 0.25
1:00 pm 13:00 Cloudy with Light Snow 35 1.7 28 -2.2 76 76 W 16 26 30.09 1019 8 13 N/A
1:52 pm 13:52 Cloudy 37 2.8 26 -3.3 65 65 WSW 8 13 30.06 1018 10 16 N/A
2:03 pm 14:03 Windy with Snow Likely 34 1.1 28 -2.2 79 79 NW 23 37 30.09 1019 2 3 N/A
2:13 pm 14:13 Mostly Cloudy with Light Snow 33 0.6 28 -2.2 82 82 NW 9 15 30.09 1019 4 6 N/A
2:52 pm 14:52 Mostly Cloudy 37 2.8 26 -3.3 65 65 NNW 13 20 30.04 1017 10 16 N/A
3:03 pm 15:03 Cloudy 38 3.3 26 -3.3 62 62 NNW 14 22 30.06 1018 10 16 N/A
3:34 pm 15:34 Windy with Snow Likely 34 1.1 30 -1.1 85 85 NNW 23 37 30.06 1018 1 1 N/A
3:40 pm 15:40 Windy with Snow Likely 33 0.6 28 -2.2 82 82 NW 29 46 30.09 1019 5 8 N/A
3:52 pm 15:52 Cloudy 34 1.1 27 -2.8 76 76 NNW 24 39 30.05 1018 10 16 N/A
4:52 pm 16:52 Mostly Cloudy 37 2.8 24 -4.4 59 59 WNW 16 26 30.04 1017 10 16 N/A
5:02 pm 17:02 Mostly Cloudy with Light Snow 33 0.6 26 -3.3 75 75 WNW 23 37 30.09 1019 1 1 N/A
5:07 pm 17:07 Cloudy with Snow 31 -0.6 29 -1.7 92 92 W 13 20 30.09 1019 0 0 N/A
5:17 pm 17:17 Mostly Cloudy with Mist and Fog 34 1.1 30 -1.1 85 85 W 9 15 30.06 1018 5 8 0.01 0.25
5:41 pm 17:41 Cloudy 35 1.7 26 -3.3 70 70 NW 24 39 30.06 1018 10 16 0.01 0.25
5:52 pm 17:52 Mostly Cloudy 34 1.1 23 -5 64 64 WNW 20 31 30.05 1018 10 16 0.01 0.25
6:52 pm 18:52 Mostly Cloudy 32 undefined 26 -3.3 79 79 NW 15 24 30.07 1018 10 16 N/A
7:52 pm 19:52 Partly Cloudy 31 -0.6 24 -4.4 76 76 NW 14 22 30.08 1019 10 16 N/A
8:52 pm 20:52 Mostly Cloudy 30 -1.1 23 -5 75 75 NNW 10 17 30.09 1019 10 16 N/A
9:52 pm 21:52 Cloudy 30 -1.1 23 -5 75 75 N 12 19 30.09 1019 10 16 N/A
10:52 pm 22:52 Mostly Cloudy 28 -2.2 23 -5 81 81 NNW 6 9 30.09 1019 10 16 N/A
11:52 pm 23:52 Mostly Clear 27 -2.8 23 -5 85 85 WNW 8 13 30.09 1019 10 16 N/A

Powered by AerisWeather